Weather History for KBLH - August, 2013

Change the Weather History Date:

Monday, August 5, 2013

  Actual Average Record
Temperature  
Mean Temperature 90 °F -  
Max Temperature 102 °F 106 °F 117 °F (1995)
Min Temperature 79 °F 80 °F 71 °F (1976)
Cooling Degree Days 26    
Growing Degree Days 40 (Base 50)    
Moisture  
Dew Point 53 °F    
Average Humidity 27    
Maximum Humidity 36    
Minimum Humidity 20    
Precipitation  
Precipitation 0.00 in - - ()
Sea Level Pressure  
Sea Level Pressure 29.80 in    
Wind  
Wind Speed 9 mph (South)    
Max Wind Speed 20 mph    
Max Gust Speed 25 mph    
Visibility 10 miles    
Events      
Averages and records for this station are not official NWS values.
T = Trace of Precipitation, MM = Missing Value Source: NWS Daily Summary

Daily Weather History Graph

Daily Weather History Graph

Search for Another Location

Airport or City:

Trip Planner

Search our weather history database for the weather conditions in past years. The results will help you decide how hot, cold, wet, or windy it might be!

Date:

Astronomy

Aug. 05, 2013 Rise Set
Actual Time 5:54 AM PDT 7:35 PM PDT
Civil Twilight 5:27 AM PDT 8:01 PM PDT
Nautical Twilight 4:54 AM PDT 8:34 PM PDT
Astronomical Twilight 4:20 AM PDT 9:08 PM PDT
Moon 4:52 AM PDT (8/5) 6:40 PM PDT (8/5)
Length of Visible Light 14h 34m
Length of Day
13h 40m
Waning Crescent, 1% of the Moon is Illuminated
Aug 5
Waning Crescent
Aug 6
New
Aug 14
First Quarter
Aug 20
Full
Aug 28
Last Quarter

Hourly Weather History & Observations

Time (PDT) Temp. Heat Index Dew Point Humidity Pressure Visibility Wind Dir Wind Speed Gust Speed Precip Events Conditions
12:52 AM 91.9 °F - 46.0 °F 21% 29.77 in 10.0 mi South 3.5 mph - N/A   Clear
1:52 AM 88.0 °F - 48.9 °F 26% 29.77 in 10.0 mi SSE 5.8 mph - N/A   Clear
2:52 AM 82.9 °F - 51.1 °F 33% 29.77 in 10.0 mi SE 3.5 mph - N/A   Clear
3:52 AM 82.9 °F - 51.1 °F 33% 29.78 in 10.0 mi SSE 9.2 mph - N/A   Clear
4:52 AM 81.0 °F - 50.0 °F 34% 29.78 in 10.0 mi Calm Calm - N/A   Clear
5:52 AM 79.0 °F - 46.9 °F 32% 29.81 in 10.0 mi North 4.6 mph - N/A   Clear
6:52 AM 81.0 °F - 48.0 °F 31% 29.83 in 10.0 mi North 4.6 mph - N/A   Clear
7:52 AM 84.0 °F - 48.9 °F 29% 29.84 in 10.0 mi North 4.6 mph - N/A   Clear
8:52 AM 89.1 °F - 44.1 °F 21% 29.86 in 10.0 mi South 15.0 mph 24.2 mph N/A   Clear
9:52 AM 91.0 °F 90.9 °F 61.0 °F 36% 29.87 in 10.0 mi South 17.3 mph 25.3 mph N/A   Clear
10:52 AM 95.0 °F 96.0 °F 63.0 °F 34% 29.87 in 10.0 mi South 19.6 mph - N/A   Clear
11:52 AM 97.0 °F 100.4 °F 66.0 °F 36% 29.86 in 10.0 mi South 16.1 mph - N/A   Clear
12:52 PM 100.9 °F 104.6 °F 64.9 °F 31% 29.84 in 10.0 mi South 18.4 mph 23.0 mph N/A   Clear
1:52 PM 100.9 °F 102.7 °F 62.1 °F 28% 29.82 in 10.0 mi SSE 18.4 mph - N/A   Clear
2:52 PM 102.9 °F 102.4 °F 57.0 °F 22% 29.81 in 10.0 mi South 18.4 mph - N/A   Clear
3:52 PM 102.0 °F 100.1 °F 54.0 °F 20% 29.79 in 10.0 mi South 16.1 mph - N/A   Clear
4:52 PM 102.0 °F 101.1 °F 55.9 °F 22% 29.76 in 10.0 mi South 15.0 mph - N/A   Clear
5:52 PM 100.9 °F 100.0 °F 57.0 °F 23% 29.75 in 10.0 mi South 16.1 mph - N/A   Clear
6:52 PM 98.1 °F 96.1 °F 54.0 °F 23% 29.75 in 10.0 mi South 16.1 mph - N/A   Clear
7:52 PM 95.0 °F 92.5 °F 53.1 °F 24% 29.76 in 10.0 mi South 13.8 mph - N/A   Clear
8:52 PM 91.9 °F - 48.9 °F 23% 29.78 in 10.0 mi South 13.8 mph - N/A   Clear
9:52 PM 91.0 °F - 50.0 °F 24% 29.80 in 10.0 mi South 11.5 mph - N/A   Clear
10:52 PM 89.1 °F - 52.0 °F 28% 29.80 in 10.0 mi South 8.1 mph - N/A   Clear
11:52 PM 91.0 °F - 48.9 °F 23% 29.81 in 10.0 mi SSW 10.4 mph - N/A   Clear